CZ-6A DEB, 54394

Orbit data source: Space-Track

CZ-6A DEB, 54394 is space debris in SSO originally from a launch on Fri, 11 Nov 2022 UTC launched from the Taiyaun Space Center, China (TSC). Debris objects in space refer to the collection of defunct objects orbiting the Earth. Examples of debris include non-operational satellites, rocket bodies, and fragments generated from explosions, collisions, or faulty payload assembly.

Loading next visibility...
Identifier
54394, 2022-151DS
Orbit
SSO
Country
Flag of CNCN / PRC
Related business
Manufacturer
SAST
Mission
Spacecraft
Bus & Motor
Unknown
Mass
Unknown
Launch date (UTC)
2022-11-11 (3 years ago)
Launch vehicle
Unknown
Launch site
Taiyaun Space Center, China (TSC)
Object type
Payload
Rocket body
Debris
Shape & HBR
Unknown shape, 1.2 m
Radar Cross Section
Large (>1 m²)

Expand to show TLE details & history
Last TLE update: 10 hours ago

TLE from 10 hours ago
0 CZ-6A DEB
1 54394U 22151DS  26130.08682522  .00000957  00000-0  28394-3 0  9991
2 54394  98.5691 161.4094 0102449 102.4007 258.8671 14.42608577183108
Epoch: 2026-05-10T02:05Z
TLE epoch observation values (Epoch: 2026-05-10T02:05:01.699Z)
Latitude
0.00003°
Longitude
-97.74263°
Altitude
767.665 km
Speed
7.463 km/s
True Right ascension
10h 45m 38s
True Declination
0° 00' 00"
Sunlit
Object was in daylight at epoch
Visualization orbit readout
Latitude
Unknown
Longitude
Unknown
Altitude
Unknown
Speed
Unknown
Apparent Right ascension
Unknown
Apparent Declination
Unknown
Sunlit
N/A
Visualization observer readout
Local Sidereal Time
20:39:16
Azimuth
Unknown
Elevation
Unknown
Doppler factor
Unknown
Orbital elements
Apogee altitude
820.01 km
Perigee altitude
674.017 km
Semi-major axis
7,125.151 km
Eccentricity
0.01024
Inclination
98.5691°
RAAN
161.4094°
Arg. of periapsis
102.4007°
True anomaly
257.71813°
Mean anomaly
258.8671°
Eccentric anomaly
258.29232°
Mean motion
3.60871 °/min
Orbital period
99.76 mins
BSTAR
0.00028394
Loading maneuver chart data...
Computing Atmospheric mass density...
Loading historical data...
Loading historical data...
Loading historical data...
Loading historical data...
Loading historical data...
Loading historical data...
Loading historical data...

Documentation

Showing up to 5 results
|